GFSSGP_500_rhum_240.txt.gz
RH
13 24 30 36 60 70 87 92 66 72 77 67 60 13 10 21 24 18 24 25 21 13 12 15 19 20 19 20 19 17 11 9 7 3 3 3 3 3 5 7 8 9 10 9 7 7 7 3 3
10 21 20 44 54 52 88 67 60 75 94 76 68 14 10 21 25 23 24 25 21 18 12 14 14 20 19 19 20 17 13 10 10 6 4 4 3 3 4 5 6 7 7 5 5 6 4 4 3
12 13 18 41 48 62 63 79 97 72 66 54 44 14 13 20 22 22 23 24 22 20 18 11 12 15 21 18 18 16 12 10 10 10 8 6 5 3 3 4 4 4 4 3 3 4 4 4 3
13 10 13 32 56 48 65 67 82 81 70 61 43 13 15 19 18 19 19 19 20 23 22 14 11 13 15 18 16 16 13 9 9 10 10 8 8 8 4 3 4 4 4 3 3 4 4 4 4
18 13 10 17 53 42 53 49 80 65 87 69 41 28 12 18 17 16 18 18 18 19 23 22 13 12 13 14 14 14 14 10 8 9 8 9 10 12 11 8 6 5 5 4 4 3 3 3 3
15 15 10 16 52 61 52 54 56 63 86 67 56 37 22 15 17 17 15 16 17 18 18 22 21 13 12 13 12 11 12 11 8 8 9 9 9 10 11 13 12 10 10 10 10 10 9 9 9
12 11 10 10 46 52 43 45 67 80 74 64 56 42 26 10 14 14 12 11 14 17 18 18 22 21 13 11 11 9 10 10 9 7 8 9 9 9 9 11 11 12 10 8 9 9 9 10 11
11 10 10 9 12 43 42 48 69 85 97 70 54 41 26 11 9 14 13 7 10 12 16 18 18 21 21 12 10 9 7 9 8 7 7 8 9 9 9 10 10 11 11 9 8 8 9 10 10
9 11 10 9 11 37 34 42 53 67 64 58 44 42 28 16 10 11 12 12 8 10 8 15 18 18 20 23 13 10 9 7 8 8 6 7 8 8 9 9 10 10 9 9 9 9 9 10 11
6 8 10 11 12 13 20 39 37 40 49 44 39 33 21 22 12 18 10 10 12 9 8 8 12 18 19 20 24 16 11 10 8 7 8 8 7 8 9 9 9 9 8 8 8 7 8 8 8
9 7 6 9 10 11 18 25 36 33 30 43 34 28 24 14 19 19 15 7 10 12 10 11 11 10 14 19 20 22 21 12 11 10 8 8 8 9 10 11 11 10 10 11 12 12 11 11 12
25 15 8 6 7 9 11 16 25 34 27 20 42 34 25 12 13 17 14 10 7 10 12 12 12 12 11 12 18 21 22 26 17 13 13 11 10 9 9 10 10 11 10 10 10 10 10 10 11
50 43 27 8 6 6 9 10 14 21 28 21 17 20 13 10 13 16 12 11 10 7 8 11 12 12 12 11 12 18 20 22 26 25 21 18 15 14 14 12 13 12 13 12 13 14 14 15 16
36 46 52 41 12 6 6 8 10 17 18 17 14 17 12 11 10 10 13 12 13 12 7 6 8 9 9 10 10 13 18 19 24 26 26 26 26 26 25 23 21 20 21 22 23 24 24 24 24
6 13 31 40 47 18 9 5 7 10 22 14 13 15 12 10 10 10 11 14 14 14 12 7 6 6 5 5 7 10 13 17 19 19 20 21 21 21 20 21 21 22 22 22 22 22 22 23 26
6 6 6 13 35 53 42 7 5 5 18 25 13 11 16 10 9 9 9 10 12 14 14 12 7 6 7 5 5 5 10 13 16 18 17 18 19 20 20 20 21 22 20 20 22 25 28 31 28
1 3 6 6 8 45 56 35 18 30 6 14 26 13 16 16 10 9 8 8 9 11 14 14 10 9 8 7 6 5 5 7 12 15 17 16 16 18 19 19 18 17 18 19 21 21 23 26 28
1 1 1 3 6 7 30 38 40 44 35 6 16 25 15 19 10 8 8 8 9 9 10 12 13 13 8 9 7 6 6 4 6 9 13 15 16 15 15 17 19 18 16 16 15 16 16 12 11
1 1 1 1 1 5 5 13 25 41 49 34 10 12 13 8 20 7 6 7 8 9 9 10 10 11 11 9 8 8 6 5 4 4 6 8 10 16 15 13 14 14 16 13 12 9 7 6 7
1 1 1 1 1 1 3 5 7 22 41 51 33 13 12 7 6 9 5 5 6 6 8 9 10 10 10 10 10 9 8 6 5 5 5 5 4 6 10 14 14 14 13 12 12 10 9 9 8
1 1 1 1 1 1 1 2 5 6 19 30 51 40 26 35 39 10 7 5 4 5 6 7 8 9 10 10 10 10 8 7 6 6 6 5 5 4 4 5 9 14 16 17 16 15 14 13 13
1 1 1 1 2 1 3 1 2 5 6 15 32 59 54 58 58 59 20 8 5 4 5 6 6 7 8 8 9 10 9 9 9 7 6 5 5 5 5 4 4 4 6 8 16 18 18 15 16
2 3 2 3 3 2 3 2 1 2 4 6 22 53 57 48 62 61 61 28 6 4 4 5 5 5 6 8 8 8 8 7 8 8 7 6 5 5 5 5 4 4 4 4 5 7 9 8 9
11 5 6 11 16 16 3 4 1 2 3 4 6 14 41 34 51 65 60 59 36 14 6 6 7 6 6 6 9 8 7 7 7 6 7 7 6 5 5 5 5 5 4 4 5 5 5 5 5
18 11 34 34 42 13 15 26 2 3 3 5 7 33 69 50 67 62 69 67 36 26 14 15 45 30 24 14 14 10 9 10 8 6 6 8 7 6 6 6 5 5 5 5 5 4 5 5 5
98 72 100 100 95 25 45 53 5 6 6 10 35 76 84 77 61 56 59 61 81 40 32 38 38 50 38 24 14 32 21 12 10 8 7 6 7 8 8 7 6 5 5 5 5 5 5 5 5
61 98 62 91 100 68 76 59 20 23 14 11 43 85 82 84 72 66 64 59 68 78 56 52 53 56 62 60 34 98 85 11 10 12 7 6 6 7 8 7 7 6 5 5 4 4 5 5 5
52 95 100 96 94 100 96 95 97 100 72 21 13 75 86 89 90 82 83 55 46 60 86 70 46 46 59 68 74 64 30 11 7 6 8 7 7 6 6 6 7 6 6 5 5 4 4 4 5
62 48 78 97 100 93 74 64 95 100 95 82 37 38 84 86 81 91 94 86 78 51 62 80 68 44 54 64 65 75 86 50 16 5 5 6 10 7 6 6 6 6 6 6 5 5 5 4 5
34 64 57 62 70 83 95 70 85 100 100 90 98 90 53 80 91 92 98 100 98 99 64 62 79 72 57 49 49 57 70 80 39 15 14 11 6 5 5 6 6 6 6 6 5 6 6 5 6

GFSSGP_500_rhum_243.txt.gz
RH
55 44 53 89 53 70 72 68 65 54 70 75 55 43 18 19 23 20 24 26 26 16 7 12 16 16 18 19 16 10 9 6 3 3 3 3 4 6 9 11 10 10 9 8 9 6 3 3 3
20 43 44 54 46 55 69 66 57 56 60 61 54 20 14 18 20 21 23 26 26 18 8 9 14 13 16 18 17 12 10 10 6 4 3 3 3 4 5 7 8 9 6 7 6 4 3 2 2
13 17 35 36 57 59 55 74 98 74 62 68 60 53 42 17 18 20 21 20 23 20 11 9 11 11 13 17 17 14 10 10 10 7 6 5 3 4 4 6 6 5 4 5 4 4 2 2 3
14 13 20 28 43 51 50 65 67 57 35 58 50 54 43 17 18 18 19 18 18 21 16 11 10 11 11 14 16 15 12 9 11 10 8 9 7 4 3 4 4 3 3 4 4 4 3 4 5
17 12 13 29 47 52 45 50 48 50 25 44 60 62 45 36 15 17 16 17 18 18 21 18 12 11 12 12 14 15 13 10 8 10 10 10 11 9 7 5 4 4 3 3 4 4 3 4 4
16 16 11 20 39 46 47 53 58 50 67 28 59 66 46 36 13 15 13 13 16 18 18 21 18 12 12 11 12 14 13 10 9 8 9 10 10 11 11 10 10 10 9 8 6 5 5 5 6
13 13 12 12 40 43 55 59 40 47 61 28 30 66 35 36 14 16 12 8 13 15 19 18 21 20 12 12 11 11 12 11 8 8 9 9 9 9 10 10 10 9 10 10 10 9 9 9 10
11 11 12 13 23 56 54 44 42 45 56 25 18 49 44 26 17 15 14 8 9 10 15 19 18 21 22 14 13 11 10 10 8 8 8 8 9 9 11 11 11 9 8 8 8 9 9 9 10
9 10 11 12 13 37 34 36 41 49 39 38 17 32 27 25 19 10 14 12 9 9 8 16 19 19 21 23 15 13 12 10 9 7 7 8 8 9 9 9 10 9 9 9 10 10 11 11 13
7 9 10 11 11 12 28 28 40 44 53 41 21 19 14 17 20 10 10 13 12 10 10 11 11 18 19 21 24 19 13 12 10 9 7 7 8 8 9 9 9 9 8 8 8 8 9 10 11
5 6 7 8 10 11 25 28 31 38 47 60 31 22 14 12 17 14 10 8 11 12 11 12 12 10 15 19 21 24 23 13 14 12 11 9 8 9 10 10 10 10 10 10 10 10 10 10 11
25 14 8 7 7 8 11 13 15 21 35 42 44 30 18 17 13 14 14 10 7 9 12 12 12 12 11 12 19 21 22 25 16 14 14 12 12 12 11 11 11 13 12 11 11 11 10 9 9
44 42 25 12 9 7 10 9 12 15 24 32 37 32 22 14 14 11 12 14 11 7 7 10 11 11 12 10 11 19 21 22 26 22 18 15 15 14 14 14 14 13 14 12 11 11 13 14 15
18 23 40 35 35 18 7 9 8 11 19 25 28 34 27 20 14 13 11 14 15 11 10 6 7 9 8 9 10 10 19 20 25 27 27 26 23 20 18 18 19 19 19 20 20 22 23 23 24
6 7 8 15 34 41 23 6 11 8 9 23 21 31 26 17 13 12 11 16 13 14 14 12 10 6 6 6 5 8 10 17 20 20 23 24 24 25 26 26 26 26 25 25 24 24 23 23 24
6 8 7 6 8 42 51 17 20 8 7 10 34 16 32 18 12 12 12 13 16 12 12 14 13 11 6 6 6 5 7 10 13 19 18 19 20 20 21 20 20 21 22 22 21 23 27 29 31
1 1 3 5 6 7 26 30 41 33 10 6 15 58 16 27 14 12 11 11 12 15 11 11 13 14 11 8 6 7 5 6 9 10 16 18 17 18 19 20 20 20 20 21 23 24 26 30 30
1 1 1 1 1 3 6 8 18 44 44 20 6 12 48 14 21 27 16 12 11 12 11 11 11 11 13 11 8 8 8 6 5 7 9 12 17 16 16 18 18 18 18 18 17 17 14 9 8
1 1 1 1 1 1 1 4 6 8 38 46 31 8 7 37 14 31 37 25 15 13 11 10 10 10 11 12 12 11 10 9 6 5 5 8 8 13 16 14 15 16 15 13 13 12 10 8 7
2 2 1 1 1 1 1 1 1 6 7 41 50 39 18 8 24 16 34 22 17 14 20 16 10 10 10 11 11 11 14 11 8 6 5 5 5 5 8 12 14 14 13 13 12 10 10 10 9
1 1 1 1 1 1 1 1 1 1 4 9 42 51 52 30 10 12 15 43 21 12 9 10 7 7 9 10 10 11 10 11 9 8 7 8 6 5 5 5 6 8 14 18 17 16 15 14 13
1 1 1 1 1 1 1 1 1 1 1 3 7 31 48 59 34 18 20 28 58 16 11 7 5 5 6 8 9 10 10 11 11 11 10 8 6 6 5 5 5 5 5 7 12 17 20 20 21
2 1 1 1 1 1 1 1 1 1 1 1 2 5 13 44 64 62 46 39 18 26 17 14 10 5 5 6 8 9 9 11 14 11 11 10 9 8 7 6 6 5 5 5 5 6 7 9 10
2 1 2 2 2 1 2 4 1 1 1 2 2 3 4 6 33 66 81 58 40 36 49 60 47 12 5 5 6 7 8 9 11 12 11 11 11 10 10 9 8 7 6 6 5 5 5 5 5
3 3 5 20 44 33 44 6 4 7 9 6 4 3 4 6 5 20 52 95 72 70 70 70 66 45 16 5 5 5 7 10 9 9 12 12 11 10 11 11 10 8 7 6 6 5 5 5 5
3 4 19 52 52 66 100 43 66 58 42 55 7 8 6 10 11 17 51 57 93 78 72 68 68 62 47 21 10 9 27 14 15 17 13 12 12 10 12 10 9 8 7 7 6 6 5 5 5
5 9 27 61 94 49 87 99 100 100 100 58 97 13 8 15 84 70 72 62 73 88 90 74 76 51 35 42 45 21 35 77 46 99 90 47 15 14 13 10 9 9 8 7 8 7 7 6 5
6 10 25 52 79 80 82 98 94 96 95 98 63 52 18 14 82 94 91 81 63 58 62 69 77 66 44 41 51 52 39 58 89 78 48 84 61 17 11 9 9 8 8 9 9 8 8 7 6
9 12 18 34 61 73 96 100 100 100 94 88 98 52 29 21 66 94 98 97 78 57 55 57 59 85 66 47 50 52 60 53 80 69 57 96 93 40 18 17 20 14 9 8 8 7 7 7 6
11 10 12 34 38 40 46 67 91 86 100 70 100 100 95 36 31 60 98 98 98 86 74 59 58 55 71 83 61 55 53 56 48 41 92 54 92 96 36 13 18 19 16 11 9 8 7 7 7

GFSSGP_500_rhum_246.txt.gz
RH
53 48 54 76 81 62 66 79 74 56 53 46 40 46 31 17 23 22 22 23 24 14 11 8 7 10 11 9 9 10 6 3 3 3 4 4 9 15 18 17 10 9 8 9 5 4 4 5 3
51 44 46 82 60 51 64 85 79 62 59 58 50 29 37 35 20 21 19 20 24 18 10 8 8 9 10 9 9 10 9 5 4 3 3 4 5 7 8 10 9 7 7 3 3 3 3 2 2
17 38 48 66 53 48 58 59 69 65 44 43 35 27 24 30 14 19 18 18 19 23 11 8 8 8 10 10 9 9 11 9 6 7 4 3 4 4 5 6 5 6 5 4 3 2 2 2 3
17 15 22 42 44 47 54 53 72 67 45 25 26 44 38 19 14 17 17 18 18 20 19 10 8 7 8 10 9 9 10 11 8 9 9 5 3 3 3 3 3 4 5 4 3 3 4 5 6
17 16 14 29 38 47 52 46 56 69 60 24 20 20 33 28 15 13 13 14 17 18 20 17 10 8 7 9 10 8 8 10 9 10 10 9 7 5 3 3 3 4 4 4 4 4 4 5 5
16 16 16 16 35 45 48 40 26 51 66 49 12 11 25 34 17 14 12 9 14 17 18 20 18 11 9 7 9 9 7 8 10 9 10 8 9 9 9 8 6 4 4 4 3 3 3 3 4
14 14 14 15 32 35 41 40 25 46 52 49 13 10 17 30 22 11 16 7 10 12 19 18 21 18 11 8 8 10 8 8 9 10 9 9 8 9 9 9 9 10 11 10 10 10 10 10 9
12 12 12 13 16 26 34 32 52 39 36 53 39 23 10 23 18 10 14 14 8 9 13 19 19 21 19 12 8 8 10 9 8 9 9 9 9 9 10 10 9 8 9 9 8 8 8 9 10
9 10 11 12 13 18 27 36 52 52 38 31 36 27 16 17 15 9 11 13 13 9 10 12 19 19 21 22 14 9 9 11 9 8 8 9 9 10 10 9 9 8 8 9 9 10 10 10 11
7 9 9 10 12 12 24 36 36 40 42 34 28 32 23 18 13 13 9 11 12 12 10 12 10 17 20 21 24 17 11 9 10 9 8 9 9 9 10 10 10 9 9 9 10 10 11 11 12
6 6 7 8 10 11 13 23 22 22 29 33 30 28 25 16 20 15 10 7 9 10 13 12 12 11 13 20 21 24 21 12 10 9 8 8 9 9 10 11 10 10 9 9 9 9 9 10 10
10 8 7 8 7 9 10 12 13 17 26 34 33 25 24 20 20 21 14 10 12 8 9 12 12 12 11 11 20 22 23 25 15 12 10 10 8 8 8 9 10 10 10 10 11 11 11 11 11
28 20 25 19 18 8 8 9 10 14 18 30 29 26 27 23 21 20 17 15 14 14 8 7 10 11 10 9 10 20 22 23 27 21 16 14 12 11 10 10 10 11 11 11 11 11 12 12 12
42 41 44 41 43 35 8 7 10 8 10 14 16 27 25 24 27 17 17 18 16 14 12 10 8 7 8 8 7 9 20 22 24 27 27 23 18 16 16 14 14 14 13 14 16 18 19 20 22
12 22 28 36 36 34 31 10 8 9 9 8 11 13 24 32 26 22 21 18 17 14 12 14 13 11 7 7 6 6 7 17 22 24 27 27 27 27 26 24 22 21 21 23 25 26 25 25 25
7 7 6 6 8 13 24 30 25 16 10 10 8 14 12 14 17 19 18 16 14 18 15 14 12 14 12 10 7 6 5 6 10 21 22 22 22 23 23 23 25 25 25 24 24 23 22 23 26
1 2 3 4 5 7 6 10 22 31 33 13 9 9 14 12 12 11 17 15 13 14 19 19 17 13 14 12 10 7 6 6 6 7 15 22 20 21 21 21 21 22 22 22 22 24 28 32 31
1 1 1 1 1 1 2 6 7 8 31 41 28 22 12 9 13 23 14 16 14 15 20 21 22 18 12 13 11 9 9 12 9 7 6 9 18 20 19 20 20 20 20 20 22 24 23 22 21
2 2 2 2 1 1 1 1 1 4 6 36 48 49 44 20 12 17 38 26 19 14 13 19 21 19 16 12 14 12 10 10 12 12 7 6 6 10 20 19 17 19 18 16 17 17 16 12 8
2 2 2 2 2 1 1 1 1 1 1 4 18 38 51 50 30 18 36 43 32 28 15 15 20 16 19 13 12 13 14 11 10 10 9 7 7 6 6 10 14 17 16 14 14 12 11 10 8
2 2 2 2 1 1 1 1 1 1 1 1 1 5 12 53 55 39 21 46 36 37 29 21 18 19 17 18 12 11 12 12 9 8 10 12 13 9 6 6 5 7 12 17 17 16 16 16 15
2 2 2 1 1 1 1 1 1 1 1 1 1 1 2 7 49 56 46 24 43 37 44 31 22 21 28 32 21 11 10 11 13 13 14 12 14 12 9 7 6 6 5 7 11 13 15 14 17
2 2 2 2 2 1 1 1 1 1 1 1 1 1 1 2 5 42 58 49 25 32 27 38 27 15 14 21 38 20 8 9 12 12 13 11 11 11 10 10 9 8 7 6 6 6 7 8 9
2 2 2 2 2 1 1 1 2 2 2 1 1 2 2 1 2 4 32 58 53 25 30 26 24 13 18 15 11 16 7 6 9 12 12 14 17 15 12 11 10 10 9 8 7 7 6 6 6
3 3 3 3 2 6 9 20 26 39 28 9 6 4 4 4 2 2 3 16 52 54 27 28 31 42 24 24 22 9 10 7 7 10 11 13 14 15 16 17 15 13 13 11 8 7 6 7 6
4 4 4 4 4 5 25 57 63 92 79 75 31 31 22 7 7 5 3 4 9 48 58 38 30 34 47 45 35 30 22 13 16 10 14 13 12 15 21 20 19 19 17 13 10 8 7 6 6
5 5 5 5 5 7 22 54 60 89 86 96 77 75 51 22 18 10 7 7 7 6 36 53 65 55 48 45 40 31 27 31 29 16 22 27 26 31 29 31 23 19 20 25 22 12 11 10 9
6 6 6 7 6 7 31 40 63 84 99 99 100 100 100 98 40 34 19 16 18 23 11 14 42 88 89 64 60 52 58 41 56 36 18 25 78 49 91 41 27 26 26 29 27 22 17 15 16
7 6 7 8 8 9 9 23 49 66 63 77 83 93 96 100 97 73 32 18 29 90 85 72 58 73 89 93 71 76 85 66 70 53 41 31 72 98 100 99 55 45 42 33 21 24 26 27 24
9 8 9 10 11 11 10 10 19 39 49 55 47 59 83 99 100 100 100 94 22 90 98 99 86 75 78 89 95 91 66 83 62 60 64 45 26 99 100 96 90 95 97 63 50 50 36 39 42

GFSSGP_500_rhum_252.txt.gz
RH
43 47 37 29 40 68 63 75 66 58 33 18 16 16 15 15 17 18 18 23 17 10 8 8 7 7 6 5 6 5 3 3 4 6 11 18 18 13 10 9 9 9 10 10 10 10 10 9 6
48 45 34 26 50 78 66 74 65 64 33 23 16 15 15 12 12 16 18 18 23 14 8 9 8 6 7 6 6 5 4 2 3 4 6 6 8 8 8 8 4 3 4 4 4 4 5 4 4
38 51 39 19 43 79 55 56 71 60 44 32 18 14 16 14 11 10 16 18 18 22 11 8 9 7 6 6 4 5 4 3 2 3 3 4 5 6 6 4 3 3 3 2 3 3 3 2 2
17 47 50 42 39 70 51 57 68 65 67 50 22 15 14 15 12 8 12 14 18 19 22 9 9 8 6 6 5 4 5 5 3 2 2 3 3 4 4 4 3 2 2 2 2 3 3 3 3
19 19 30 53 39 38 57 51 51 49 59 66 42 16 14 16 15 10 10 9 14 19 20 20 8 9 7 6 6 4 4 5 6 4 3 2 3 3 3 3 3 3 3 4 4 5 5 5 5
18 19 19 21 19 20 30 45 43 48 36 38 57 25 15 14 16 14 9 10 8 16 19 21 18 8 8 6 6 6 4 4 5 6 6 4 3 3 3 3 3 4 4 5 5 5 5 5 5
16 17 18 20 23 21 20 29 31 28 39 38 53 46 24 21 12 16 14 10 9 10 14 19 21 18 8 8 7 6 6 5 5 6 7 7 7 6 4 3 3 3 3 3 4 4 4 4 6
13 14 15 16 19 22 23 22 26 28 37 30 43 41 48 34 25 12 15 13 11 11 11 11 17 21 19 9 8 7 7 7 6 6 6 6 6 6 8 8 7 7 6 6 6 7 8 9 10
10 11 13 14 14 16 20 24 31 33 34 26 28 39 33 28 30 17 12 14 11 11 11 12 11 14 21 22 10 8 7 7 7 7 7 7 8 7 7 7 8 8 8 8 8 8 8 8 9
7 8 9 11 12 13 14 17 23 23 23 22 18 26 28 21 28 23 24 11 12 10 11 11 12 12 13 21 23 13 9 7 7 7 8 9 9 8 8 8 7 7 8 8 8 8 9 10 10
6 6 6 7 9 10 11 13 14 15 18 22 24 23 24 19 22 19 19 24 10 10 9 11 12 12 12 12 20 24 17 10 8 8 8 9 9 10 9 8 7 7 8 8 9 9 9 9 10
12 7 6 6 6 7 9 9 11 12 13 14 16 23 26 21 18 28 22 18 22 12 8 8 10 12 11 11 12 19 23 22 14 10 8 8 8 9 9 9 9 8 8 8 8 7 8 8 8
44 31 23 14 7 8 8 8 8 9 10 10 12 17 25 24 21 25 28 22 17 24 17 11 8 9 10 11 11 12 19 22 26 19 14 10 9 9 9 9 9 9 9 8 8 8 9 10 10
45 52 51 46 42 33 14 12 11 13 8 8 9 10 13 15 18 26 31 27 18 17 20 15 10 7 7 8 9 10 11 18 21 25 25 17 14 11 10 10 11 10 10 10 10 10 10 10 10
43 38 40 44 47 49 41 27 16 23 27 29 21 16 10 9 13 22 36 29 25 21 17 20 15 11 8 7 7 7 8 10 17 21 24 28 26 19 16 14 12 12 12 12 12 13 13 13 14
22 26 27 31 41 39 45 41 30 27 39 43 53 50 35 21 10 10 24 37 28 27 17 19 20 15 12 11 9 8 7 6 8 13 20 22 25 27 27 27 23 20 19 19 19 19 20 22 23
6 6 7 8 11 10 9 21 37 35 37 46 48 50 58 56 41 18 10 20 32 35 21 17 23 20 14 13 13 11 9 8 6 6 9 14 21 22 23 24 24 26 27 28 27 26 26 26 25
3 2 3 3 4 4 4 6 7 12 25 30 33 30 27 38 52 58 44 15 27 23 29 20 15 23 20 16 14 12 12 10 8 9 8 8 10 15 21 22 22 23 23 22 23 24 24 23 22
2 2 2 1 1 1 1 1 1 2 4 5 7 8 10 10 12 33 55 55 22 29 25 36 25 21 20 19 17 14 14 13 14 11 13 9 8 8 8 15 21 22 24 25 25 24 24 24 25
2 2 2 2 2 2 2 2 2 1 1 1 1 1 2 4 5 5 7 28 58 25 32 44 36 29 19 22 20 19 15 14 12 14 11 9 12 11 9 7 7 12 22 22 23 24 23 24 25
2 3 3 2 2 2 2 2 2 2 2 1 1 1 1 1 1 1 2 4 7 44 41 24 41 46 29 34 34 23 21 14 14 12 13 14 16 19 18 15 11 7 7 15 22 22 22 24 22
4 3 3 3 2 2 2 2 1 1 1 1 1 1 1 1 1 1 1 1 1 3 23 56 27 23 38 47 35 41 33 28 22 21 17 14 21 24 28 28 21 15 11 7 7 12 19 22 21
4 4 3 3 2 2 2 2 1 1 1 1 1 1 1 1 1 1 1 1 1 1 1 6 53 38 14 21 51 45 51 43 34 31 28 19 14 17 23 22 27 29 21 16 12 9 7 7 10
5 4 3 2 2 2 2 2 2 1 1 1 1 1 1 1 1 1 1 1 1 1 1 1 4 47 22 18 39 55 79 64 48 41 42 34 28 17 14 17 22 25 30 33 26 19 13 10 8
4 3 3 3 3 2 2 2 2 2 1 1 1 1 1 1 2 3 2 1 1 1 1 1 1 2 37 31 50 88 95 86 67 59 53 49 44 37 26 18 13 16 23 28 36 29 25 19 14
4 3 3 4 4 3 3 2 2 2 2 2 2 1 1 2 10 29 54 42 23 11 4 2 2 1 2 33 42 98 97 96 90 77 68 63 65 61 52 42 36 17 12 15 17 19 28 30 27
5 4 4 5 4 4 4 3 3 3 3 2 2 2 2 2 3 18 38 40 57 66 58 17 11 2 2 2 27 43 92 98 83 97 95 70 74 78 65 55 47 49 36 19 15 14 16 22 21
6 5 6 6 5 5 4 4 4 4 4 3 3 3 3 3 3 8 40 42 40 47 66 81 83 49 7 4 2 17 39 56 95 70 90 97 96 73 77 71 52 53 54 22 18 27 27 16 16
7 8 8 7 7 6 6 5 5 5 5 5 5 5 5 5 4 4 9 35 40 40 43 72 88 95 57 22 6 3 7 32 36 69 87 55 96 98 64 68 61 56 58 53 41 28 26 39 37
8 8 9 9 8 9 8 7 6 5 5 5 5 5 5 6 6 4 4 4 9 33 33 42 45 99 100 67 40 16 6 10 24 39 63 65 62 95 100 96 72 65 54 60 71 68 54 30 46

GFSSGP_500_rhum_258.txt.gz
RH
49 36 28 42 68 90 74 72 84 75 24 18 16 15 14 17 19 19 22 12 7 7 7 6 7 6 6 2 2 4 4 6 8 11 11 10 10 11 13 14 16 18 22 25 23 17 11 11 10
42 37 18 26 58 85 89 78 67 59 34 21 21 15 11 14 16 18 20 21 8 8 7 6 6 6 6 3 2 2 2 3 4 5 5 6 7 7 7 8 8 9 10 11 11 10 7 4 4
20 16 17 23 60 73 78 70 77 50 37 30 36 18 14 11 11 14 19 20 19 8 8 7 6 6 6 5 2 2 2 2 3 4 5 4 4 4 5 5 5 6 8 8 7 5 3 4 4
16 24 20 32 75 88 74 58 76 58 61 65 24 26 16 14 11 9 15 19 20 18 8 7 6 5 6 5 4 3 3 3 3 3 3 3 2 2 2 2 2 2 4 5 4 3 3 4 3
16 30 32 38 53 77 72 71 67 68 50 64 37 22 19 16 15 11 9 14 18 20 19 8 6 5 5 5 5 4 4 4 4 3 3 3 2 2 2 2 2 2 2 2 2 2 2 2 3
15 27 42 38 46 58 48 67 48 51 50 47 22 33 22 25 20 15 11 9 12 17 20 21 9 6 5 5 5 5 4 4 4 4 4 3 3 3 4 4 5 5 5 5 5 5 6 6 7
19 17 41 33 35 41 31 34 52 51 46 49 39 42 48 33 25 25 17 14 10 11 13 20 22 11 6 5 6 5 5 5 4 4 4 4 4 4 4 4 5 5 5 5 5 5 5 6 6
19 18 18 29 30 36 32 21 28 42 43 45 32 37 50 51 34 24 17 13 15 11 11 12 17 22 14 7 5 6 6 5 5 5 5 5 4 4 4 4 4 4 4 4 4 4 4 5 7
17 18 21 26 30 27 20 14 24 21 18 36 40 39 37 45 41 29 14 18 15 12 13 11 11 14 22 18 8 6 6 6 5 5 5 5 5 6 5 5 4 4 4 5 6 7 7 7 7
13 14 16 23 22 25 18 16 19 20 11 18 34 38 37 37 47 44 22 22 24 18 10 12 12 12 12 21 21 10 7 6 6 6 6 6 6 5 6 6 6 7 7 7 6 6 7 7 7
9 10 13 15 18 17 17 14 15 16 14 17 21 31 30 32 36 44 40 25 21 23 16 10 10 12 12 12 18 22 15 9 7 6 6 7 6 6 5 5 5 6 7 7 7 7 7 7 8
7 8 9 11 12 12 13 12 13 13 13 14 16 19 21 21 27 30 41 37 24 23 20 19 17 12 10 12 11 14 22 21 12 8 7 6 6 6 6 5 6 6 6 6 7 7 7 7 7
14 7 7 7 7 8 8 8 9 10 11 11 12 13 14 15 18 19 24 29 29 22 25 20 20 18 16 9 11 11 12 19 23 20 12 9 8 7 7 6 7 6 6 6 7 7 6 6 6
49 26 24 16 14 11 9 7 7 8 9 9 9 10 11 11 11 12 16 20 25 25 20 27 21 18 21 17 9 8 11 11 14 21 24 21 14 10 8 8 7 7 7 7 7 7 6 6 7
72 63 57 58 58 54 30 24 15 11 12 19 12 8 8 7 8 9 11 12 17 26 32 26 31 27 19 21 19 10 7 8 10 11 17 21 26 24 17 13 10 9 9 9 9 9 9 9 9
78 70 58 54 51 53 63 56 57 55 48 39 30 26 23 18 12 10 9 8 9 13 20 22 29 35 29 23 21 20 19 9 6 8 9 14 19 23 27 27 22 18 15 14 13 12 12 12 12
89 75 78 68 56 72 64 59 67 68 60 49 49 52 50 45 42 39 32 25 15 10 9 13 37 33 36 42 30 20 21 23 12 11 10 7 8 17 21 24 27 28 27 27 25 22 20 20 20
44 50 23 37 33 22 44 40 25 21 25 31 38 24 25 32 41 45 45 45 47 44 38 18 12 47 56 50 55 49 25 23 27 24 12 12 9 6 9 18 21 23 25 27 27 28 28 27 27
6 7 5 13 9 8 7 8 7 8 7 6 8 8 7 6 6 7 9 10 15 26 36 42 43 17 31 65 62 52 61 48 26 34 28 15 12 12 8 6 12 20 21 23 24 24 23 24 24
4 6 6 5 3 4 3 3 3 3 3 3 3 3 3 2 2 2 2 2 2 2 4 7 11 28 38 21 34 58 74 68 74 61 47 36 24 14 13 9 6 7 13 20 22 23 24 23 24
3 4 3 2 2 2 2 2 2 2 2 2 2 1 1 1 1 1 1 1 1 1 1 1 2 4 14 27 38 28 46 54 73 69 70 59 43 29 16 14 12 8 6 8 12 19 20 22 24
2 2 2 2 3 2 3 2 2 2 2 2 2 2 2 1 1 1 1 1 1 1 1 1 1 1 1 2 6 31 38 36 55 56 75 85 69 52 33 19 16 15 12 8 7 8 11 17 19
2 2 3 4 4 3 4 4 2 2 2 2 2 2 1 1 1 1 1 1 1 1 1 1 1 1 1 1 1 2 20 42 31 53 83 76 84 77 60 40 25 19 17 15 11 9 8 8 10
4 4 4 4 4 4 6 6 4 4 2 2 2 2 2 1 1 1 1 1 1 1 1 1 1 1 1 1 1 1 2 14 43 36 56 98 98 93 88 68 50 33 23 19 18 16 12 11 10
4 4 5 5 4 7 9 23 3 2 3 2 2 2 2 2 2 2 1 1 1 1 1 1 1 1 1 1 1 1 1 1 4 29 42 37 66 98 95 89 70 61 44 31 31 22 20 18 16
5 5 6 6 8 6 11 27 4 2 3 3 3 2 2 2 2 2 2 2 2 1 1 1 1 1 1 1 1 1 1 1 2 1 6 36 35 36 75 95 86 87 59 57 40 42 39 27 24
5 5 5 4 41 36 33 16 4 3 3 3 3 3 3 3 3 2 2 2 2 2 2 2 1 1 1 1 1 1 1 1 2 2 2 2 11 34 36 36 94 91 100 77 68 52 51 62 43
5 5 6 5 8 26 27 5 4 4 4 4 4 3 3 3 3 3 3 3 3 3 3 2 2 2 2 2 2 2 2 2 3 23 36 23 9 3 18 41 36 63 97 99 93 79 60 56 63
6 6 6 5 4 5 49 54 3 4 5 5 4 5 5 5 4 4 4 4 4 4 4 4 3 3 3 3 2 2 2 2 3 9 37 80 66 46 11 5 25 44 61 85 98 96 90 80 66
5 5 5 6 5 6 8 8 6 8 6 6 6 6 6 6 6 6 6 6 6 6 5 5 4 4 4 4 4 3 3 3 3 3 11 30 39 38 38 30 14 16 40 60 55 96 96 76 96